Change the Weather History Date:

Thursday, January 24, 2013

  Actual Average Record
Temperature  
Mean Temperature 68 °F -  
Max Temperature 84 °F 56 °F 68 °F (2015)
Min Temperature 51 °F 36 °F 21 °F (2014)
Cooling Degree Days 4    
Growing Degree Days 18 (Base 50)    
Moisture  
Dew Point 47 °F    
Average Humidity 60    
Maximum Humidity 83    
Minimum Humidity 27    
Precipitation  
Precipitation 0.00 in - - ()
Sea Level Pressure  
Sea Level Pressure 30.10 in    
Wind  
Wind Speed 8 mph (WSW)    
Max Wind Speed 16 mph    
Max Gust Speed 17 mph    
Visibility 10 miles    
Events      
Averages and records for this station are not official NWS values.
T = Trace of Precipitation, MM = Missing Value Source: NWS Daily Summary

Daily Weather History Graph

Daily Weather History Graph

Search for Another Location

Airport or City:

Trip Planner

Search our weather history database for the weather conditions in past years. The results will help you decide how hot, cold, wet, or windy it might be!

Date:

Astronomy

Jan. 24, 2013 Rise Set
Actual Time 7:29 AM CST 5:55 PM CST
Civil Twilight 7:02 AM CST 6:21 PM CST
Nautical Twilight 6:32 AM CST 6:51 PM CST
Astronomical Twilight 6:03 AM CST 7:20 PM CST
Moon 3:59 PM CST (1/24) 5:25 AM CST (1/24)
Length of Visible Light 11h 18m
Length of Day
10h 26m
Waxing Gibbous, 94% of the Moon is Illuminated
Jan 24
Waxing Gibbous
Jan 26
Full
Feb 3
Last Quarter
Feb 10
New
Feb 17
First Quarter

Hourly Weather History & Observations

Time (CST) Temp. Dew Point Humidity Pressure Visibility Wind Dir Wind Speed Gust Speed Precip Events Conditions
12:52 AM 60.1 °F 52.0 °F 75% 30.13 in 10.0 mi South 11.5 mph - N/A   Clear
1:52 AM 60.1 °F 51.1 °F 72% 30.13 in 10.0 mi SSW 8.1 mph - N/A   Clear
2:52 AM 57.0 °F 51.1 °F 81% 30.14 in 10.0 mi South 5.8 mph - N/A   Clear
3:52 AM 55.0 °F 48.9 °F 80% 30.14 in 10.0 mi South 5.8 mph - N/A   Clear
4:52 AM 55.0 °F 48.9 °F 80% 30.14 in 10.0 mi SSE 5.8 mph - N/A   Clear
5:52 AM 53.1 °F 48.0 °F 83% 30.14 in 10.0 mi South 4.6 mph - N/A   Clear
5:59 AM 53.6 °F 48.2 °F 82% 30.19 in 10.0 mi South 6.9 mph - N/A   Scattered Clouds
6:52 AM 53.1 °F 48.0 °F 83% 30.14 in 10.0 mi South 4.6 mph - N/A   Scattered Clouds
7:52 AM 53.1 °F 48.0 °F 83% 30.15 in 10.0 mi Calm Calm - N/A   Scattered Clouds
8:52 AM 57.0 °F 50.0 °F 77% 30.16 in 10.0 mi Calm Calm - N/A   Scattered Clouds
9:52 AM 62.1 °F 52.0 °F 70% 30.16 in 10.0 mi SE 3.5 mph - N/A   Scattered Clouds
10:52 AM 71.1 °F 53.1 °F 53% 30.16 in 10.0 mi WSW 9.2 mph - N/A   Scattered Clouds
11:52 AM 75.0 °F 53.1 °F 46% 30.14 in 10.0 mi WSW 6.9 mph - N/A   Scattered Clouds
12:52 PM 79.0 °F 52.0 °F 39% 30.10 in 10.0 mi WSW 10.4 mph - N/A   Clear
1:52 PM 81.0 °F 50.0 °F 34% 30.06 in 10.0 mi WSW 6.9 mph - N/A   Partly Cloudy
2:52 PM 84.0 °F 46.9 °F 27% 30.03 in 10.0 mi Variable 6.9 mph 17.3 mph N/A   Partly Cloudy
3:52 PM 82.0 °F 45.0 °F 27% 30.02 in 10.0 mi NNW 13.8 mph - N/A   Partly Cloudy
4:10 PM 75.2 °F 44.6 °F 34% 30.07 in 10.0 mi NNW 16.1 mph - N/A   Partly Cloudy
4:52 PM 72.0 °F 44.1 °F 37% 30.04 in 10.0 mi NNW 12.7 mph - N/A   Partly Cloudy
5:52 PM 66.0 °F 45.0 °F 47% 30.04 in 10.0 mi NNW 6.9 mph - N/A   Partly Cloudy
6:52 PM 63.0 °F 44.1 °F 50% 30.06 in 10.0 mi NNW 8.1 mph - N/A   Partly Cloudy
7:52 PM 59.0 °F 42.1 °F 53% 30.06 in 10.0 mi NNW 9.2 mph - N/A   Partly Cloudy
8:52 PM 55.9 °F 41.0 °F 57% 30.06 in 10.0 mi NW 5.8 mph - N/A   Partly Cloudy
9:52 PM 54.0 °F 39.0 °F 57% 30.06 in 10.0 mi NNW 5.8 mph - N/A   Scattered Clouds
10:52 PM 53.1 °F 39.0 °F 59% 30.05 in 10.0 mi Calm Calm - N/A   Partly Cloudy
11:52 PM 51.1 °F 37.9 °F 61% 30.07 in 9.0 mi NW 10.4 mph - N/A   Clear